Other Public Products
Issued by NWS Grand Forks, ND

Home | Current Version | Previous Version | Graphics & Text | Print | Product List | Glossary On
Versions: 1 2 3 4 5 6 7 8 9 10 11 12 13 14 15 16 17 18 19 20 21 22 23 24 25 26 27 28 29 30 31 32 33 34 35 36 37 38 39 40 41 42 43 44 45 46 47 48 49 50
000
FPUS83 KFGF 230510
OPUFGF
PRAIRIE TO PINES WEATHER ROUNDUP
NATIONAL WEATHER SERVICE EASTERN NORTH DAKOTA/GRAND FORKS ND
1200 AM CDT TUE SEP 23 2014

 **SATELLITE DATA USED TO AUGMENT SKY COVER AT AUTOMATED STATIONS**
 *****  WEATHER ACROSS EASTERN NORTH DAKOTA  *****

CITY           SKY/WX    TMP DP  RH WIND       PRES   REMARKS
GRAND FORKS    CLEAR     52  48  86 S6        30.03S
GRAND FORKS AF CLEAR     55  49  80 S8        30.03S
GRAND CITY NWS   N/A     57 N/A N/A S5          N/A
BUXTON         NOT AVBL
DEVILS LAKE    CLEAR     57  48  72 SE9       29.98F
FARGO          CLEAR     61  48  62 SE10      30.05F
WAHPETON ARPT  CLEAR     54  45  71 S9        30.09S
$$

 *****  WEATHER ACROSS CENTRAL AND WESTERN NORTH DAKOTA  *****

CITY           SKY/WX    TMP DP  RH WIND       PRES   REMARKS
JAMESTOWN      CLEAR     59  49  69 S12       30.00F
BISMARCK       CLEAR     60  50  69 SE9       29.94S
MINOT          CLEAR     55  47  74 E7        29.91F
MINOT AFB      CLEAR     54  50  85 SE5       29.90F
GARRISON         N/A     58  51  78 SE6       29.92F
WILLISTON      CLEAR     61  49  64 CALM      29.87F
DICKINSON      CLEAR     59  49  69 SE13      29.88F
HETTINGER      PTCLDY    59  51  75 SE8       29.91S
$$

 *****  OTHER OBSERVATIONS NORTHEAST NORTH DAKOTA  *****

CITY           SKY/WX    TMP DP  RH WIND       PRES   REMARKS
WALHALLA         N/A     54  50  87 SE6       30.01S
LANGDON        FAIR      57  46  67 S10       30.01S
CAVALIER       FAIR      54  46  76 S5        30.02S
GRAFTON        FAIR      52  48  87 SE8       30.02S
CANDO          FAIR      54  48  82 SE8       29.99F
FORT TOTTEN    NOT AVBL
ROLLA          FAIR      54  48  82 S5        30.00S
RUGBY          FAIR      61  48  63 SE12      29.95F
 ***** THE ABOVE OBSERVATIONS ARE NON NWS ARE NOT QUALITY
        CONTROLLED AND MAY MIS-REPORT RAIN FOR SNOW...
$$

 *****  OTHER OBSERVATIONS SOUTHEAST NORTH DAKOTA *****

CITY           SKY/WX    TMP DP  RH WIND       PRES   REMARKS
COOPERSTOWN    NOT AVBL
VALLEY CITY    FAIR      55  50  82 S7        30.03S
OAKES            N/A     59  50  72 S12       30.03F
GWINNER        CLEAR     57  48  72 S8        30.05F
SHEYENNE NWR     N/A     54  48  79 SE5       29.95S
BUFFALO        NOT AVBL
WYNDMERE         N/A     55  48  76 SE6         N/A
 ***** THE ABOVE OBSERVATIONS ARE NON NWS ARE NOT QUALITY
       CONTROLLED AND MAY MIS-REPORT RAIN FOR SNOW...
$$

  *****  WEATHER ACROSS NORTHERN MINNESOTA  *****

CITY           SKY/WX    TMP DP  RH WIND       PRES   REMARKS
FLAG ISLAND    CLEAR     57  54  88 CALM      30.06S
WARROAD        CLEAR     55  50  82 S3        30.08S
ROSEAU         CLEAR     55  48  76 S6        30.07R
HALLOCK        CLEAR     55  48  76 SE9       30.03S
THF RVR FALLS  CLEAR     54  48  82 SE8       30.07F
HALSTAD          N/A     55  48  77 S9          N/A
FOSSTON        CLEAR     55  52  88 SE7       30.10S
BAUDETTE       CLEAR     52  48  86 CALM      30.09R
WASKISH        CLEAR     52  48  87 CALM      30.11S
CROOKSTON      CLEAR     54  48  82 SE8       30.06S
$$
  *****  WEATHER ACROSS CENTRAL AND WEST MINNESOTA  *****

CITY           SKY/WX    TMP DP  RH WIND       PRES   REMARKS
BEMIDJI        CLEAR     50  47  89 CALM      30.12S
PARK RAPIDS    CLEAR     55  48  77 SE5       30.12S
WADENA         CLEAR     52  46  82 SE3       30.12S
DETROIT LAKES  CLEAR     55  50  82 S7        30.11F
MOORHEAD       CLEAR     57  52  82 S9        30.07F
FERGUS FALLS   CLEAR     57  46  67 SE8       30.11S
ELBOW LAKE     FAIR      55  48  80 SE8       30.11S
MORRIS MN      CLEAR     52  48  87 SE7       30.11S
STAPLES        CLEAR     48  46  93 CALM      30.13S
WHEATON        CLEAR     48  46  93 E8        30.11S
$$
  *****  WEATHER ELSEWHERE ACROSS MINNESOTA  *****

CITY           SKY/WX    TMP DP  RH WIND       PRES   REMARKS
DULUTH         CLEAR     56  48  74 W7        30.15S
INTRNTL FALLS  CLEAR     44  42  93 CALM      30.10S
ELY            CLEAR     52  48  87 S5        30.13S
CLOQUET        CLEAR     55  48  76 SW3       30.16S
BRAINERD       CLEAR     49  48  97 CALM      30.15S
HIBBING        FOG       44  42  93 CALM      30.15S VSB 3/4
ALEXANDRIA     CLEAR     53  48  83 SE7       30.15S
SAINT CLOUD    CLEAR     52  49  89 SE5       30.16S
MINNEAPOLIS    CLEAR     58  50  75 SE5       30.18S
$$

  *****  WEATHER ACROSS SOUTH DAKOTA  *****

CITY           SKY/WX    TMP DP  RH WIND       PRES   REMARKS
SIOUX FALLS    MOCLDY    61  49  64 S12       30.14F
BROOKINGS      NOT AVBL
WATERTOWN      CLEAR     56  49  77 S9        30.10F
HURON          MOCLDY    63  50  62 S13       30.06F
SISSETON         N/A     54  49  83 S7        30.06S
ABERDEEN       PTCLDY    62  50  64 S12       30.04S
MITCHELL       CLOUDY    64  52  64 S9        30.09S
PIERRE         CLOUDY    62  54  74 S18       29.97F
MOBRIDGE       PTCLDY    65  54  67 S15       29.93F
RAPID CITY     CLOUDY    60  54  80 CALM      29.94F
$$

  *****  SOME WEATHER IN NEARBY STATES *****

CITY           SKY/WX    TMP DP  RH WIND       PRES   REMARKS
GLASGOW MT     CLEAR     61  47  59 SE5       29.83S
GREAT FALLS MT MOCLDY    64  49  57 SW10      29.93R
CHEYENNE WY    PTCLDY    57  44  62 W15       30.15F
SCOTTSBLUFF NE PTCLDY    56  54  93 E7        30.03F
OMAHA NE       CLOUDY    62  51  67 S7        30.19S
DES MOINES IA  PTCLDY    59  51  75 S7        30.22S
DAVENPORT IA   CLEAR     51  44  77 SE3       30.26S
CHICAGO IL     CLEAR     54  45  71 S3        30.27S
EAU CLAIRE WI  FOG       48  47  96 CALM      30.20S VSB 1/2
LA CROSSE WI   CLEAR     54  51  90 SE7       30.22R
$$

  *****  SOME NATIONAL WEATHER *****

CITY           SKY/WX    TMP DP  RH WIND       PRES   REMARKS
LA GUARDIA NY  PTCLDY    57  40  52 NW12      30.18R
RALEIGH NC     CLOUDY    64  58  80 CALM      30.17R
ATLANTA GA     PTCLDY    65  57  75 E8        30.12S
NEW ORLEANS LA CLEAR     78  56  46 NE17G25   30.04F
OKLAHOMA CITY  MOCLDY    64  50  60 SE9       30.19S
ALBUQUERQUE NM CLOUDY    66  61  84 S7        30.27R
SALT LAKE CITY MOCLDY    67  52  58 S6        30.10S
LOS ANGELES CA CLEAR     66  63  90 SW6       29.94R
BOISE ID       CLEAR     70  49  47 SE6       30.00R
SEATTLE WA     CLOUDY    64  55  72 CALM      29.94R
$$

*** WEATHER ACROSS MANITOBA...SASKATCHEWAN AND ONTARIO ***
                ***ONTARIO***

CITY           SKY/WX    TMP DP  RH WIND       PRES   REMARKS
GERALDTON      PTCLDY    54  52  94 NE5       30.00R
THUNDER BAY    CLEAR     54  50  87 SW5       30.06R
SIOUX LOOKOUT  CLEAR     50  48  93 SW2       30.05R
TORONTO        PTCLDY    48  41  76 W5        30.22R
BIG TROUT LK   FOG       45  41  87 E5        30.08R VSB 1
PICKLE LAKE    NOT AVBL
DRYDEN         CLEAR     55  50  82 SW8       30.06S
KENORA         CLEAR     59  52  77 SW6       30.07S
$$
                *** MANITOBA***

CITY           SKY/WX    TMP DP  RH WIND       PRES   REMARKS
BRANDON        CLEAR     52  46  82 E6        29.95F
DAUPHIN        CLEAR     50  45  81 S3        29.90F
ISLAND LAKE    PTCLDY    54  50  87 E6        29.99S
PILOT MOUND      N/A     54  46  76 S9          N/A
THE PAS        CLEAR     54  48  82 SE8       29.80F
THOMPSON       CLOUDY    50  48  93 SE12      29.92F
WINNIPEG       CLEAR     59  48  67 S12       30.01R
LYNN LAKE      CLEAR     50  48  93 SE12      29.76F
CHURCHILL      MOCLDY    36  32  87 S13       30.05F
GILLAM         CLEAR     39  39 100 E6        30.02S
$$
                ***SASKATCHEWAN***

CITY           SKY/WX    TMP DP  RH WIND       PRES   REMARKS
ESTEVAN        CLEAR     54  48  82 SE6       29.89S
KINDERSLEY     PTCLDY    57  48  72 SW3       29.76S
LLOYDMINSTER   CLEAR     55  46  71 SW9       29.73S
PRINCE ALBERT  CLEAR     52  46  82 E5        29.73F
REGINA         CLEAR     57  46  67 SE12      29.85S



USA.gov is the U.S. government's official web portal to all federal, state and local government web resources and services.